Time,TemperatureF,DewpointF,PressureIn,WindDirection,WindDirectionDegrees,WindSpeedMPH,WindSpeedGustMPH,Humidity,HourlyPrecipIn,Conditions,Clouds,dailyrainin,SoftwareType,DateUTC
2013-01-17 00:00:00,49.8,47.5,0.00,SSE,158,0.0,0.0,92,0.00,,,0.04,WUHU216HW,2013-01-17 05:00:00,
2013-01-17 00:01:00,49.8,47.5,0.00,SSE,158,0.0,0.0,92,0.00,,,0.04,WUHU216HW,2013-01-17 05:01:00,
2013-01-17 00:03:00,49.8,47.5,0.00,SSE,158,0.0,0.0,92,0.00,,,0.04,WUHU216HW,2013-01-17 05:03:00,
2013-01-17 00:08:00,49.6,47.3,0.00,SSE,158,0.0,0.0,92,0.00,,,0.00,WUHU216HW,2013-01-17 05:08:00,
2013-01-17 00:13:00,49.6,47.3,0.00,SSE,158,0.0,0.0,92,0.00,,,0.00,WUHU216HW,2013-01-17 05:13:00,
2013-01-17 00:18:00,49.6,47.3,0.00,SSE,158,0.0,0.0,92,0.00,,,0.00,WUHU216HW,2013-01-17 05:18:00,
2013-01-17 00:23:00,49.6,47.3,0.00,SSE,158,0.0,0.0,92,0.00,,,0.00,WUHU216HW,2013-01-17 05:23:00,
2013-01-17 00:28:00,49.6,47.3,0.00,SSE,158,0.0,0.0,92,0.00,,,0.00,WUHU216HW,2013-01-17 05:28:00,
2013-01-17 00:33:00,49.6,47.3,0.00,SSE,158,0.0,0.0,92,0.00,,,0.00,WUHU216HW,2013-01-17 05:33:00,
2013-01-17 00:38:00,49.2,47.0,0.00,SSE,158,0.0,0.0,92,0.00,,,0.00,WUHU216HW,2013-01-17 05:38:00,
2013-01-17 00:43:00,49.2,47.0,0.00,SSE,158,0.0,0.0,92,0.00,,,0.00,WUHU216HW,2013-01-17 05:43:00,
2013-01-17 00:48:00,49.2,47.0,0.00,SSE,158,0.0,0.0,92,0.00,,,0.00,WUHU216HW,2013-01-17 05:48:00,
2013-01-17 00:53:00,49.1,46.8,0.00,SSE,158,0.0,0.0,92,0.00,,,0.00,WUHU216HW,2013-01-17 05:53:00,
2013-01-17 00:58:00,49.1,46.8,0.00,SSE,158,0.0,0.0,92,0.00,,,0.00,WUHU216HW,2013-01-17 05:58:00,
2013-01-17 01:03:00,49.1,46.8,0.00,SSE,158,0.0,0.0,92,0.00,,,0.00,WUHU216HW,2013-01-17 06:03:00,
2013-01-17 01:08:00,48.9,46.6,0.00,SSE,158,0.0,0.0,92,0.00,,,0.00,WUHU216HW,2013-01-17 06:08:00,
2013-01-17 01:13:00,48.9,46.6,0.00,SSE,158,0.0,0.0,92,0.00,,,0.00,WUHU216HW,2013-01-17 06:13:00,
2013-01-17 01:18:00,48.7,46.5,0.00,SSE,158,0.0,0.0,92,0.00,,,0.00,WUHU216HW,2013-01-17 06:18:00,
2013-01-17 01:23:00,48.7,46.5,0.00,SSE,158,0.0,0.0,92,0.00,,,0.00,WUHU216HW,2013-01-17 06:23:00,
2013-01-17 01:28:00,48.7,46.5,0.00,SSE,158,0.0,0.0,92,0.00,,,0.00,WUHU216HW,2013-01-17 06:28:00,
2013-01-17 01:33:00,48.5,46.3,0.00,SSE,158,0.0,0.0,92,0.00,,,0.00,WUHU216HW,2013-01-17 06:33:00,
2013-01-17 01:38:00,48.3,46.2,0.00,SSE,158,0.0,0.0,92,0.00,,,0.00,WUHU216HW,2013-01-17 06:38:00,
2013-01-17 01:43:00,48.3,46.2,0.00,SSE,158,0.0,0.0,92,0.00,,,0.00,WUHU216HW,2013-01-17 06:43:00,
2013-01-17 01:48:00,48.2,46.0,0.00,SSE,158,0.0,0.0,92,0.00,,,0.00,WUHU216HW,2013-01-17 06:48:00,
2013-01-17 01:53:00,48.0,45.8,0.00,SSE,158,0.0,1.5,92,0.00,,,0.00,WUHU216HW,2013-01-17 06:53:00,
2013-01-17 01:58:00,48.0,45.8,0.00,SSE,158,0.0,1.5,92,0.00,,,0.00,WUHU216HW,2013-01-17 06:58:00,
2013-01-17 02:03:00,48.0,45.8,0.00,SSE,158,0.0,0.0,92,0.00,,,0.00,WUHU216HW,2013-01-17 07:03:00,
2013-01-17 02:08:00,47.8,45.6,0.00,SSE,158,0.0,0.0,92,0.00,,,0.00,WUHU216HW,2013-01-17 07:08:00,
2013-01-17 02:13:00,47.8,45.6,0.00,SSE,158,0.0,0.0,92,0.00,,,0.00,WUHU216HW,2013-01-17 07:13:00,
2013-01-17 02:18:00,47.6,45.5,0.00,SSE,158,0.0,0.0,92,0.00,,,0.00,WUHU216HW,2013-01-17 07:18:00,
2013-01-17 02:23:00,47.4,45.3,0.00,SSE,158,0.0,0.0,92,0.00,,,0.00,WUHU216HW,2013-01-17 07:23:00,
2013-01-17 02:28:00,47.4,45.3,0.00,SSE,158,0.0,0.0,92,0.00,,,0.00,WUHU216HW,2013-01-17 07:28:00,
2013-01-17 02:33:00,47.3,45.1,0.00,SSE,158,0.0,0.0,92,0.00,,,0.00,WUHU216HW,2013-01-17 07:33:00,
2013-01-17 02:38:00,47.1,44.9,0.00,SE,135,0.0,0.0,92,0.00,,,0.00,WUHU216HW,2013-01-17 07:38:00,
2013-01-17 02:43:00,47.1,44.9,0.00,SE,135,0.0,0.0,92,0.00,,,0.00,WUHU216HW,2013-01-17 07:43:00,
2013-01-17 02:48:00,47.1,44.9,0.00,SE,135,0.0,0.0,92,0.00,,,0.00,WUHU216HW,2013-01-17 07:48:00,
2013-01-17 02:53:00,46.9,44.7,0.00,SE,135,0.0,0.0,92,0.00,,,0.00,WUHU216HW,2013-01-17 07:53:00,
2013-01-17 02:58:00,46.9,44.7,0.00,SE,135,0.0,0.0,92,0.00,,,0.00,WUHU216HW,2013-01-17 07:58:00,
2013-01-17 03:03:00,46.7,44.6,0.00,SE,135,0.0,0.0,92,0.00,,,0.00,WUHU216HW,2013-01-17 08:03:00,
2013-01-17 03:08:00,46.7,44.6,0.00,SE,135,0.0,0.0,92,0.00,,,0.00,WUHU216HW,2013-01-17 08:08:00,
2013-01-17 03:13:00,46.5,44.4,0.00,SE,135,0.0,0.0,92,0.00,,,0.00,WUHU216HW,2013-01-17 08:13:00,
2013-01-17 03:18:00,46.5,44.4,0.00,SE,135,0.0,2.2,92,0.00,,,0.00,WUHU216HW,2013-01-17 08:18:00,
2013-01-17 03:23:00,46.2,44.2,0.00,SE,135,0.0,2.2,92,0.00,,,0.00,WUHU216HW,2013-01-17 08:23:00,
2013-01-17 03:28:00,46.2,44.0,0.00,SE,135,0.0,0.0,92,0.00,,,0.00,WUHU216HW,2013-01-17 08:28:00,
2013-01-17 03:33:00,46.2,44.0,0.00,SE,135,0.0,0.0,92,0.00,,,0.00,WUHU216HW,2013-01-17 08:33:00,
2013-01-17 03:38:00,46.2,44.0,0.00,SE,135,0.0,0.0,92,0.00,,,0.00,WUHU216HW,2013-01-17 08:38:00,
2013-01-17 03:43:00,46.2,44.0,0.00,SE,135,0.0,0.0,92,0.00,,,0.00,WUHU216HW,2013-01-17 08:43:00,
2013-01-17 03:48:00,46.2,44.0,0.00,SE,135,0.0,0.0,92,0.00,,,0.00,WUHU216HW,2013-01-17 08:48:00,
2013-01-17 03:53:00,46.2,44.0,0.00,SE,135,0.0,0.0,92,0.00,,,0.00,WUHU216HW,2013-01-17 08:53:00,
2013-01-17 03:58:00,46.2,44.0,0.00,SE,135,0.0,0.0,92,0.00,,,0.00,WUHU216HW,2013-01-17 08:58:00,
2013-01-17 04:03:00,46.0,43.8,0.00,SE,135,0.0,0.0,92,0.00,,,0.00,WUHU216HW,2013-01-17 09:03:00,
2013-01-17 04:08:00,46.0,43.8,0.00,West,270,0.0,0.0,92,0.00,,,0.00,WUHU216HW,2013-01-17 09:08:00,
2013-01-17 04:13:00,46.0,43.8,0.00,West,270,0.0,0.0,92,0.00,,,0.00,WUHU216HW,2013-01-17 09:13:00,
2013-01-17 04:18:00,46.0,43.8,0.00,West,270,0.0,0.0,92,0.00,,,0.00,WUHU216HW,2013-01-17 09:18:00,
2013-01-17 04:23:00,46.0,43.8,0.00,West,270,0.0,0.0,92,0.00,,,0.00,WUHU216HW,2013-01-17 09:23:00,
2013-01-17 04:28:00,46.0,43.8,0.00,West,270,0.0,0.0,92,0.00,,,0.00,WUHU216HW,2013-01-17 09:28:00,
2013-01-17 04:33:00,46.0,43.8,0.00,West,270,0.0,0.0,92,0.00,,,0.00,WUHU216HW,2013-01-17 09:33:00,
2013-01-17 04:38:00,46.0,43.8,0.00,West,270,0.0,0.0,92,0.00,,,0.00,WUHU216HW,2013-01-17 09:38:00,
2013-01-17 04:43:00,46.0,43.8,0.00,West,270,0.0,0.0,92,0.00,,,0.00,WUHU216HW,2013-01-17 09:43:00,
2013-01-17 04:48:00,45.8,43.7,0.00,West,270,0.0,0.0,92,0.00,,,0.00,WUHU216HW,2013-01-17 09:48:00,
2013-01-17 04:53:00,45.6,43.5,0.00,SSE,158,0.0,0.0,92,0.00,,,0.00,WUHU216HW,2013-01-17 09:53:00,
2013-01-17 04:58:00,45.6,43.5,0.00,SSE,158,0.0,0.0,92,0.00,,,0.00,WUHU216HW,2013-01-17 09:58:00,
2013-01-17 05:03:00,45.6,43.5,0.00,SSE,158,0.0,0.0,92,0.00,,,0.00,WUHU216HW,2013-01-17 10:03:00,
2013-01-17 05:08:00,45.5,43.3,0.00,SSE,158,0.0,0.0,92,0.00,,,0.00,WUHU216HW,2013-01-17 10:08:00,
2013-01-17 05:13:00,45.5,43.3,0.00,SSE,158,0.0,0.0,92,0.00,,,0.00,WUHU216HW,2013-01-17 10:13:00,
2013-01-17 05:18:00,45.5,43.3,0.00,SSE,158,0.0,0.0,92,0.00,,,0.00,WUHU216HW,2013-01-17 10:18:00,
2013-01-17 05:23:00,45.5,43.3,0.00,SSE,158,0.0,0.0,92,0.00,,,0.00,WUHU216HW,2013-01-17 10:23:00,
2013-01-17 05:28:00,45.3,43.1,0.00,SSE,158,0.0,0.0,92,0.00,,,0.00,WUHU216HW,2013-01-17 10:28:00,
2013-01-17 05:33:00,45.3,43.1,0.00,SSE,158,0.0,0.0,92,0.00,,,0.00,WUHU216HW,2013-01-17 10:33:00,
2013-01-17 05:38:00,45.3,43.1,0.00,SSE,158,0.0,0.0,92,0.00,,,0.00,WUHU216HW,2013-01-17 10:38:00,
2013-01-17 05:43:00,45.3,43.1,0.00,SSE,158,0.0,0.0,92,0.00,,,0.00,WUHU216HW,2013-01-17 10:43:00,
2013-01-17 05:48:00,45.3,43.1,0.00,SSE,158,0.0,0.0,92,0.00,,,0.00,WUHU216HW,2013-01-17 10:48:00,
2013-01-17 05:53:00,45.3,43.1,0.00,SSE,158,0.0,0.0,92,0.00,,,0.00,WUHU216HW,2013-01-17 10:53:00,
2013-01-17 05:58:00,45.3,43.1,0.00,SSE,158,0.0,0.0,92,0.02,,,0.02,WUHU216HW,2013-01-17 10:58:00,
2013-01-17 06:03:00,45.1,42.9,0.00,SE,135,0.0,0.0,92,0.02,,,0.02,WUHU216HW,2013-01-17 11:03:00,
2013-01-17 06:08:00,45.1,42.9,0.00,SE,135,0.0,0.0,92,0.02,,,0.02,WUHU216HW,2013-01-17 11:08:00,
2013-01-17 06:13:00,45.1,42.9,0.00,SE,135,0.0,0.0,92,0.02,,,0.02,WUHU216HW,2013-01-17 11:13:00,
2013-01-17 06:18:00,45.1,42.9,0.00,SE,135,0.0,0.0,92,0.04,,,0.05,WUHU216HW,2013-01-17 11:18:00,
2013-01-17 06:23:00,45.1,42.9,0.00,SE,135,0.0,0.0,92,0.04,,,0.05,WUHU216HW,2013-01-17 11:23:00,
2013-01-17 06:28:00,45.1,42.9,0.00,SE,135,0.0,0.0,92,0.04,,,0.05,WUHU216HW,2013-01-17 11:28:00,
2013-01-17 06:33:00,44.9,42.8,0.00,SE,135,0.0,0.0,92,0.04,,,0.05,WUHU216HW,2013-01-17 11:33:00,
2013-01-17 06:38:00,44.9,42.8,0.00,SE,135,0.0,0.0,92,0.04,,,0.05,WUHU216HW,2013-01-17 11:38:00,
2013-01-17 06:43:00,44.9,42.8,0.00,SE,135,0.0,0.0,92,0.04,,,0.05,WUHU216HW,2013-01-17 11:43:00,
2013-01-17 06:48:00,44.9,42.8,0.00,SE,135,0.0,0.0,92,0.04,,,0.05,WUHU216HW,2013-01-17 11:48:00,
2013-01-17 06:53:00,44.9,42.8,0.00,SE,135,0.0,0.0,92,0.02,,,0.05,WUHU216HW,2013-01-17 11:53:00,
2013-01-17 06:58:00,44.9,42.8,0.00,SE,135,0.0,0.0,92,0.02,,,0.05,WUHU216HW,2013-01-17 11:58:00,
2013-01-17 07:03:00,44.9,42.8,0.00,SE,135,0.0,0.0,92,0.02,,,0.05,WUHU216HW,2013-01-17 12:03:00,
2013-01-17 07:08:00,44.9,42.8,0.00,SE,135,0.0,0.0,92,0.02,,,0.05,WUHU216HW,2013-01-17 12:08:00,
2013-01-17 07:13:00,44.9,42.8,0.00,SE,135,0.0,0.0,92,0.02,,,0.05,WUHU216HW,2013-01-17 12:13:00,
2013-01-17 07:18:00,44.9,42.8,0.00,SE,135,0.0,0.0,92,0.00,,,0.05,WUHU216HW,2013-01-17 12:18:00,
2013-01-17 07:23:00,44.9,42.8,0.00,SE,135,0.0,0.0,92,0.00,,,0.05,WUHU216HW,2013-01-17 12:23:00,
2013-01-17 07:28:00,44.9,42.8,0.00,SE,135,0.0,0.0,92,0.00,,,0.05,WUHU216HW,2013-01-17 12:28:00,
2013-01-17 07:33:00,44.7,42.6,0.00,SSE,158,0.0,0.0,92,0.00,,,0.05,WUHU216HW,2013-01-17 12:33:00,
2013-01-17 07:38:00,44.7,42.6,0.00,SSE,158,0.0,0.0,92,0.00,,,0.05,WUHU216HW,2013-01-17 12:38:00,
2013-01-17 07:43:00,44.6,42.6,0.00,SSE,158,0.0,0.0,92,0.00,,,0.05,WUHU216HW,2013-01-17 12:43:00,
2013-01-17 07:48:00,44.6,42.4,0.00,SE,135,0.0,0.0,92,0.00,,,0.05,WUHU216HW,2013-01-17 12:48:00,
2013-01-17 07:54:00,44.4,42.2,0.00,SE,135,0.0,0.0,92,0.00,,,0.05,WUHU216HW,2013-01-17 12:54:00,
2013-01-17 07:59:00,44.4,42.2,0.00,SSE,158,0.0,0.0,92,0.00,,,0.05,WUHU216HW,2013-01-17 12:59:00,
2013-01-17 08:04:00,44.4,42.2,0.00,SSE,158,0.0,0.0,92,0.00,,,0.05,WUHU216HW,2013-01-17 13:04:00,
2013-01-17 08:09:00,44.4,42.2,0.00,SSE,158,0.0,0.0,92,0.00,,,0.05,WUHU216HW,2013-01-17 13:09:00,
2013-01-17 08:14:00,44.4,42.2,0.00,SSE,158,0.0,0.0,92,0.00,,,0.05,WUHU216HW,2013-01-17 13:14:00,
2013-01-17 08:19:00,44.4,42.2,0.00,SSE,158,0.0,0.0,92,0.00,,,0.05,WUHU216HW,2013-01-17 13:19:00,
2013-01-17 08:24:00,44.4,42.2,0.00,SSE,158,0.0,0.0,92,0.00,,,0.05,WUHU216HW,2013-01-17 13:24:00,
2013-01-17 08:29:00,44.2,42.2,0.00,SSE,158,0.0,0.0,92,0.00,,,0.05,WUHU216HW,2013-01-17 13:29:00,
2013-01-17 08:34:00,44.2,42.0,0.00,SSE,158,0.0,0.0,92,0.00,,,0.05,WUHU216HW,2013-01-17 13:34:00,
2013-01-17 08:39:00,44.2,42.0,0.00,SSE,158,0.0,0.0,92,0.00,,,0.05,WUHU216HW,2013-01-17 13:39:00,
2013-01-17 08:44:00,44.2,42.0,0.00,SSE,158,0.0,0.0,92,0.00,,,0.05,WUHU216HW,2013-01-17 13:44:00,
2013-01-17 08:49:00,44.2,42.0,0.00,SSE,158,0.0,2.2,92,0.00,,,0.05,WUHU216HW,2013-01-17 13:49:00,
2013-01-17 08:54:00,44.2,42.0,0.00,SSE,158,0.0,2.2,92,0.00,,,0.05,WUHU216HW,2013-01-17 13:54:00,
2013-01-17 08:59:00,44.2,42.0,0.00,SSE,158,0.0,0.0,92,0.00,,,0.05,WUHU216HW,2013-01-17 13:59:00,
2013-01-17 09:04:00,44.2,42.0,0.00,SSE,158,0.0,0.0,92,0.00,,,0.05,WUHU216HW,2013-01-17 14:04:00,
2013-01-17 09:09:00,44.2,42.0,0.00,SSE,158,0.0,0.0,92,0.00,,,0.05,WUHU216HW,2013-01-17 14:09:00,
2013-01-17 09:14:00,44.2,42.0,0.00,SSE,158,0.0,0.0,92,0.00,,,0.05,WUHU216HW,2013-01-17 14:14:00,
2013-01-17 09:19:00,44.2,42.0,0.00,SSE,158,0.0,0.0,92,0.00,,,0.05,WUHU216HW,2013-01-17 14:19:00,
2013-01-17 09:24:00,44.2,42.0,0.00,SSE,158,0.0,0.0,92,0.00,,,0.05,WUHU216HW,2013-01-17 14:24:00,
2013-01-17 09:29:00,44.2,42.0,0.00,SSE,158,0.0,0.0,92,0.00,,,0.05,WUHU216HW,2013-01-17 14:29:00,
2013-01-17 09:34:00,44.4,42.0,0.00,SSE,158,0.0,0.0,92,0.00,,,0.05,WUHU216HW,2013-01-17 14:34:00,
2013-01-17 09:39:00,44.2,42.0,0.00,SSE,158,0.0,0.0,92,0.00,,,0.05,WUHU216HW,2013-01-17 14:39:00,
2013-01-17 09:44:00,44.2,42.0,0.00,SSE,158,0.0,0.0,92,0.00,,,0.05,WUHU216HW,2013-01-17 14:44:00,
2013-01-17 09:49:00,44.2,42.0,0.00,SSE,158,0.0,0.0,92,0.00,,,0.05,WUHU216HW,2013-01-17 14:49:00,
2013-01-17 09:54:00,44.4,42.2,0.00,SSE,158,0.0,0.0,92,0.00,,,0.05,WUHU216HW,2013-01-17 14:54:00,
2013-01-17 09:59:00,44.4,42.2,0.00,SSE,158,0.0,0.0,92,0.00,,,0.05,WUHU216HW,2013-01-17 14:59:00,
2013-01-17 10:04:00,44.4,42.2,0.00,SSE,158,0.0,0.0,92,0.00,,,0.05,WUHU216HW,2013-01-17 15:04:00,
2013-01-17 10:09:00,44.4,42.2,0.00,SSE,158,0.0,0.0,92,0.00,,,0.05,WUHU216HW,2013-01-17 15:09:00,
2013-01-17 10:14:00,44.4,42.2,0.00,SSE,158,0.0,0.0,92,0.00,,,0.05,WUHU216HW,2013-01-17 15:14:00,
2013-01-17 10:19:00,44.6,42.4,0.00,SSE,158,0.0,0.0,92,0.00,,,0.05,WUHU216HW,2013-01-17 15:19:00,
2013-01-17 10:24:00,44.6,42.4,0.00,SSE,158,0.0,0.0,92,0.00,,,0.05,WUHU216HW,2013-01-17 15:24:00,
2013-01-17 10:29:00,44.4,42.2,0.00,SSE,158,0.0,0.0,92,0.00,,,0.05,WUHU216HW,2013-01-17 15:29:00,
2013-01-17 10:34:00,44.6,42.4,0.00,SSE,158,0.0,0.0,92,0.00,,,0.05,WUHU216HW,2013-01-17 15:34:00,
2013-01-17 10:39:00,44.6,42.4,0.00,SSE,158,0.0,0.0,92,0.00,,,0.05,WUHU216HW,2013-01-17 15:39:00,
2013-01-17 10:44:00,44.6,42.4,0.00,SSE,158,0.0,0.0,92,0.00,,,0.05,WUHU216HW,2013-01-17 15:44:00,
2013-01-17 10:49:00,44.6,42.4,0.00,SSE,158,0.0,0.0,92,0.00,,,0.05,WUHU216HW,2013-01-17 15:49:00,
2013-01-17 10:54:00,44.6,42.4,0.00,SSE,158,0.0,0.0,92,0.00,,,0.05,WUHU216HW,2013-01-17 15:54:00,
2013-01-17 10:59:00,44.6,42.4,0.00,SSE,158,0.0,0.0,92,0.00,,,0.05,WUHU216HW,2013-01-17 15:59:00,
2013-01-17 11:04:00,44.4,42.2,0.00,SSE,158,0.0,0.0,92,0.00,,,0.05,WUHU216HW,2013-01-17 16:04:00,
2013-01-17 11:09:00,44.4,42.2,0.00,SSW,203,0.0,0.0,92,0.00,,,0.05,WUHU216HW,2013-01-17 16:09:00,
2013-01-17 11:14:00,44.4,42.2,0.00,South,180,0.0,0.0,92,0.00,,,0.05,WUHU216HW,2013-01-17 16:14:00,
2013-01-17 11:19:00,44.4,42.2,0.00,South,180,0.0,0.0,92,0.00,,,0.05,WUHU216HW,2013-01-17 16:19:00,
2013-01-17 11:24:00,44.4,42.2,0.00,South,180,0.0,0.0,92,0.00,,,0.05,WUHU216HW,2013-01-17 16:24:00,
2013-01-17 11:29:00,44.4,42.2,0.00,South,180,0.0,0.0,92,0.00,,,0.05,WUHU216HW,2013-01-17 16:29:00,
2013-01-17 11:34:00,44.6,42.4,0.00,South,180,0.0,0.0,92,0.00,,,0.05,WUHU216HW,2013-01-17 16:34:00,
2013-01-17 11:39:00,44.6,42.4,0.00,South,180,0.0,0.0,92,0.00,,,0.05,WUHU216HW,2013-01-17 16:39:00,
2013-01-17 11:44:00,44.6,42.4,0.00,South,180,0.0,0.0,92,0.00,,,0.05,WUHU216HW,2013-01-17 16:44:00,
2013-01-17 11:49:00,44.6,42.4,0.00,South,180,0.0,0.0,92,0.00,,,0.05,WUHU216HW,2013-01-17 16:49:00,
2013-01-17 11:54:00,44.6,42.4,0.00,South,180,0.0,0.0,92,0.00,,,0.05,WUHU216HW,2013-01-17 16:54:00,
2013-01-17 11:59:00,44.6,42.4,0.00,South,180,0.0,0.0,92,0.00,,,0.05,WUHU216HW,2013-01-17 16:59:00,
2013-01-17 12:04:00,44.6,42.4,0.00,South,180,0.0,0.0,92,0.00,,,0.05,WUHU216HW,2013-01-17 17:04:00,
2013-01-17 12:09:00,44.6,42.2,0.00,South,180,0.0,0.0,92,0.00,,,0.05,WUHU216HW,2013-01-17 17:09:00,
2013-01-17 12:14:00,44.4,42.2,0.00,South,180,0.0,0.0,92,0.00,,,0.05,WUHU216HW,2013-01-17 17:14:00,
2013-01-17 12:19:00,44.4,42.2,0.00,South,180,0.0,0.0,92,0.00,,,0.05,WUHU216HW,2013-01-17 17:19:00,
2013-01-17 12:24:00,44.4,42.2,0.00,South,180,0.0,0.0,92,0.00,,,0.05,WUHU216HW,2013-01-17 17:24:00,
2013-01-17 12:29:00,44.4,42.2,0.00,South,180,0.0,0.0,92,0.00,,,0.05,WUHU216HW,2013-01-17 17:29:00,
2013-01-17 12:34:00,44.2,42.0,0.00,South,180,0.0,0.0,92,0.00,,,0.05,WUHU216HW,2013-01-17 17:34:00,
2013-01-17 12:39:00,44.0,41.9,0.00,South,180,0.0,0.0,92,0.00,,,0.05,WUHU216HW,2013-01-17 17:39:00,
2013-01-17 12:44:00,43.7,41.5,0.00,SSE,158,0.0,0.0,92,0.00,,,0.05,WUHU216HW,2013-01-17 17:44:00,
2013-01-17 12:49:00,43.1,41.1,0.00,NW,315,0.0,1.3,92,0.00,,,0.05,WUHU216HW,2013-01-17 17:49:00,
2013-01-17 12:54:00,42.6,40.4,0.00,SSW,203,2.4,2.4,92,0.00,,,0.05,WUHU216HW,2013-01-17 17:54:00,
2013-01-17 12:59:00,42.0,39.9,0.00,WNW,293,0.0,4.2,92,0.00,,,0.05,WUHU216HW,2013-01-17 17:59:00,
2013-01-17 13:04:00,41.5,39.5,0.00,ENE,68,0.0,4.2,92,0.00,,,0.05,WUHU216HW,2013-01-17 18:04:00,
2013-01-17 13:09:00,41.3,39.2,0.00,WNW,293,0.0,3.8,92,0.00,,,0.05,WUHU216HW,2013-01-17 18:09:00,
2013-01-17 13:14:00,41.0,38.6,0.00,ESE,113,0.0,3.8,92,0.00,,,0.05,WUHU216HW,2013-01-17 18:14:00,
2013-01-17 13:19:00,40.8,38.6,0.00,ENE,68,0.0,1.3,92,0.00,,,0.05,WUHU216HW,2013-01-17 18:19:00,
2013-01-17 13:24:00,40.6,38.4,0.00,East,90,0.0,2.0,92,0.00,,,0.05,WUHU216HW,2013-01-17 18:24:00,
2013-01-17 13:29:00,40.6,38.4,0.00,SE,135,0.0,3.1,92,0.00,,,0.05,WUHU216HW,2013-01-17 18:29:00,
2013-01-17 13:34:00,40.4,38.3,0.00,SE,135,0.0,3.1,92,0.00,,,0.05,WUHU216HW,2013-01-17 18:34:00,
2013-01-17 13:39:00,40.2,38.1,0.00,SE,135,0.0,0.0,92,0.00,,,0.05,WUHU216HW,2013-01-17 18:39:00,
2013-01-17 13:44:00,40.1,37.9,0.00,SE,135,0.0,2.2,92,0.00,,,0.05,WUHU216HW,2013-01-17 18:44:00,
2013-01-17 13:49:00,40.1,37.9,0.00,SE,135,0.0,2.2,92,0.00,,,0.05,WUHU216HW,2013-01-17 18:49:00,
2013-01-17 13:54:00,39.9,37.7,0.00,SE,135,0.0,0.0,92,0.00,,,0.05,WUHU216HW,2013-01-17 18:54:00,
2013-01-17 13:59:00,39.9,37.7,0.00,SE,135,0.0,0.0,92,0.00,,,0.05,WUHU216HW,2013-01-17 18:59:00,
2013-01-17 14:04:00,39.9,37.7,0.00,SE,135,0.0,0.0,92,0.00,,,0.05,WUHU216HW,2013-01-17 19:04:00,
2013-01-17 14:09:00,39.9,37.7,0.00,SE,135,0.0,0.0,92,0.00,,,0.05,WUHU216HW,2013-01-17 19:09:00,
2013-01-17 14:14:00,39.9,37.7,0.00,SE,135,0.0,1.5,92,0.00,,,0.05,WUHU216HW,2013-01-17 19:14:00,
2013-01-17 14:19:00,39.9,37.5,0.00,SE,135,0.0,1.5,92,0.00,,,0.05,WUHU216HW,2013-01-17 19:19:00,
2013-01-17 14:24:00,39.7,37.5,0.00,SE,135,0.0,0.0,92,0.00,,,0.05,WUHU216HW,2013-01-17 19:24:00,
2013-01-17 14:29:00,39.7,37.5,0.00,SE,135,0.0,0.0,92,0.00,,,0.05,WUHU216HW,2013-01-17 19:29:00,
2013-01-17 14:34:00,39.7,37.5,0.00,SE,135,0.0,0.0,92,0.00,,,0.05,WUHU216HW,2013-01-17 19:34:00,
2013-01-17 14:39:00,39.9,37.7,0.00,SE,135,0.0,0.0,92,0.00,,,0.05,WUHU216HW,2013-01-17 19:39:00,
2013-01-17 14:44:00,39.7,37.5,0.00,SE,135,0.0,0.0,92,0.00,,,0.05,WUHU216HW,2013-01-17 19:44:00,
2013-01-17 14:49:00,39.7,37.5,0.00,SE,135,0.0,0.0,92,0.00,,,0.05,WUHU216HW,2013-01-17 19:49:00,
2013-01-17 14:54:00,39.7,37.5,0.00,SE,135,0.0,0.0,92,0.00,,,0.05,WUHU216HW,2013-01-17 19:54:00,
2013-01-17 14:59:00,39.7,37.5,0.00,SE,135,0.0,0.0,92,0.00,,,0.05,WUHU216HW,2013-01-17 19:59:00,
2013-01-17 15:04:00,39.5,37.4,0.00,SE,135,0.0,0.0,92,0.00,,,0.05,WUHU216HW,2013-01-17 20:04:00,
2013-01-17 15:09:00,39.5,37.4,0.00,SE,135,0.0,0.0,92,0.00,,,0.05,WUHU216HW,2013-01-17 20:09:00,
2013-01-17 15:14:00,39.3,37.2,0.00,SE,135,0.0,0.0,92,0.00,,,0.05,WUHU216HW,2013-01-17 20:14:00,
2013-01-17 15:19:00,39.3,37.2,0.00,SE,135,0.0,0.4,92,0.00,,,0.05,WUHU216HW,2013-01-17 20:19:00,
2013-01-17 15:24:00,39.3,37.2,0.00,SE,135,0.0,0.4,92,0.00,,,0.05,WUHU216HW,2013-01-17 20:24:00,
2013-01-17 15:29:00,39.3,37.2,0.00,NW,315,0.0,0.0,92,0.00,,,0.05,WUHU216HW,2013-01-17 20:29:00,
2013-01-17 15:34:00,39.3,37.2,0.00,SW,225,0.0,2.2,92,0.00,,,0.05,WUHU216HW,2013-01-17 20:34:00,
2013-01-17 15:39:00,39.0,36.8,0.00,SW,225,0.0,2.2,92,0.00,,,0.05,WUHU216HW,2013-01-17 20:39:00,
2013-01-17 15:44:00,39.0,36.8,0.00,SW,225,0.0,0.0,92,0.00,,,0.05,WUHU216HW,2013-01-17 20:44:00,
2013-01-17 15:49:00,39.0,36.8,0.00,SSW,203,0.0,0.0,92,0.00,,,0.05,WUHU216HW,2013-01-17 20:49:00,
2013-01-17 15:54:00,39.0,36.8,0.00,SE,135,1.1,3.1,92,0.00,,,0.05,WUHU216HW,2013-01-17 20:54:00,
2013-01-17 15:59:00,38.8,36.4,0.00,SE,135,2.6,3.1,91,0.04,,,0.07,WUHU216HW,2013-01-17 20:59:00,
2013-01-17 16:04:00,38.8,36.4,0.00,SW,225,0.0,2.6,91,0.04,,,0.09,WUHU216HW,2013-01-17 21:04:00,
2013-01-17 16:09:00,38.4,36.0,0.00,SE,135,0.0,2.9,91,0.04,,,0.09,WUHU216HW,2013-01-17 21:09:00,
2013-01-17 16:14:00,38.3,35.8,0.00,SSE,158,3.1,5.1,91,0.04,,,0.09,WUHU216HW,2013-01-17 21:14:00,
2013-01-17 16:19:00,38.1,35.6,0.00,WNW,293,0.6,5.1,91,0.04,,,0.09,WUHU216HW,2013-01-17 21:19:00,
2013-01-17 16:24:00,37.9,35.6,0.00,SSE,158,0.0,3.8,91,0.04,,,0.09,WUHU216HW,2013-01-17 21:24:00,
2013-01-17 16:29:00,37.9,35.5,0.00,South,180,0.0,2.0,91,0.04,,,0.09,WUHU216HW,2013-01-17 21:29:00,
2013-01-17 16:34:00,37.7,35.1,0.00,South,180,0.0,2.0,91,0.04,,,0.09,WUHU216HW,2013-01-17 21:34:00,
2013-01-17 16:39:00,37.5,35.1,0.00,South,180,1.7,1.7,91,0.04,,,0.09,WUHU216HW,2013-01-17 21:39:00,
2013-01-17 16:44:00,37.4,34.9,0.00,SW,225,0.0,1.7,91,0.06,,,0.11,WUHU216HW,2013-01-17 21:44:00,
2013-01-17 16:49:00,37.2,34.7,0.00,West,270,0.0,0.0,91,0.06,,,0.11,WUHU216HW,2013-01-17 21:49:00,
2013-01-17 16:54:00,37.2,34.7,0.00,WSW,248,0.0,0.0,91,0.04,,,0.11,WUHU216HW,2013-01-17 21:54:00,
2013-01-17 16:59:00,37.2,34.7,0.00,WNW,293,0.0,2.9,91,0.02,,,0.11,WUHU216HW,2013-01-17 21:59:00,
2013-01-17 17:04:00,37.2,34.7,0.00,WNW,293,0.0,6.2,91,0.02,,,0.11,WUHU216HW,2013-01-17 22:04:00,
2013-01-17 17:09:00,37.2,34.7,0.00,West,270,0.0,6.2,91,0.02,,,0.11,WUHU216HW,2013-01-17 22:09:00,
2013-01-17 17:14:00,37.2,34.6,0.00,SSE,158,0.0,2.2,91,0.02,,,0.11,WUHU216HW,2013-01-17 22:14:00,
2013-01-17 17:19:00,37.0,34.6,0.00,SE,135,1.1,2.2,91,0.02,,,0.11,WUHU216HW,2013-01-17 22:19:00,
2013-01-17 17:24:00,37.0,34.6,0.00,East,90,0.0,2.2,91,0.02,,,0.11,WUHU216HW,2013-01-17 22:24:00,
2013-01-17 17:29:00,36.6,34.2,0.00,WNW,293,0.0,3.8,91,0.02,,,0.11,WUHU216HW,2013-01-17 22:29:00,
2013-01-17 17:34:00,36.5,34.0,0.00,SSE,158,0.8,3.8,91,0.02,,,0.11,WUHU216HW,2013-01-17 22:34:00,
2013-01-17 17:39:00,36.3,33.8,0.00,West,270,0.0,4.2,91,0.02,,,0.11,WUHU216HW,2013-01-17 22:39:00,
2013-01-17 17:44:00,35.9,33.5,0.00,South,180,0.0,4.2,91,0.02,,,0.13,WUHU216HW,2013-01-17 22:44:00,
2013-01-17 17:49:00,35.7,33.3,0.00,WNW,293,1.3,1.3,91,0.02,,,0.13,WUHU216HW,2013-01-17 22:49:00,
2013-01-17 17:54:00,35.4,32.9,0.00,NW,315,0.0,1.7,91,0.02,,,0.13,WUHU216HW,2013-01-17 22:54:00,
2013-01-17 17:59:00,35.4,32.9,0.00,West,270,0.0,1.7,91,0.04,,,0.13,WUHU216HW,2013-01-17 22:59:00,
2013-01-17 18:04:00,35.4,32.9,0.00,WSW,248,0.0,0.0,91,0.04,,,0.15,WUHU216HW,2013-01-17 23:04:00,
2013-01-17 18:09:00,35.2,32.8,0.00,SW,225,0.0,1.7,91,0.04,,,0.15,WUHU216HW,2013-01-17 23:09:00,
2013-01-17 18:14:00,35.2,32.8,0.00,SSW,203,0.0,1.7,91,0.04,,,0.15,WUHU216HW,2013-01-17 23:14:00,
2013-01-17 18:19:00,35.2,32.8,0.00,ESE,113,0.0,0.0,91,0.06,,,0.17,WUHU216HW,2013-01-17 23:19:00,
2013-01-17 18:24:00,35.2,32.8,0.00,WNW,293,0.0,0.0,91,0.06,,,0.17,WUHU216HW,2013-01-17 23:24:00,
2013-01-17 18:29:00,35.2,32.8,0.00,SSW,203,0.0,0.0,91,0.06,,,0.17,WUHU216HW,2013-01-17 23:29:00,
2013-01-17 18:34:00,35.2,32.8,0.00,SSW,203,0.0,0.0,91,0.06,,,0.17,WUHU216HW,2013-01-17 23:34:00,
2013-01-17 18:39:00,34.8,32.4,0.00,WSW,248,0.0,1.3,91,0.06,,,0.17,WUHU216HW,2013-01-17 23:39:00,
2013-01-17 18:44:00,34.8,32.4,0.00,WSW,248,0.0,1.3,91,0.04,,,0.17,WUHU216HW,2013-01-17 23:44:00,
2013-01-17 18:49:00,34.8,32.4,0.00,West,270,0.0,0.0,91,0.04,,,0.17,WUHU216HW,2013-01-17 23:49:00,
2013-01-17 18:54:00,34.7,32.2,0.00,West,270,0.0,0.0,91,0.06,,,0.17,WUHU216HW,2013-01-17 23:54:00,
2013-01-17 18:59:00,34.7,32.2,0.00,West,270,0.0,0.0,91,0.04,,,0.19,WUHU216HW,2013-01-17 23:59:00,
2013-01-17 19:04:00,34.7,32.2,0.00,North,0,0.0,0.0,91,0.04,,,0.19,WUHU216HW,2013-01-18 00:04:00,
2013-01-17 19:09:00,34.7,32.2,0.00,West,270,0.0,0.0,91,0.04,,,0.19,WUHU216HW,2013-01-18 00:09:00,
2013-01-17 19:14:00,34.8,32.4,0.00,WSW,248,0.0,0.0,91,0.04,,,0.19,WUHU216HW,2013-01-18 00:14:00,
2013-01-17 19:19:00,34.8,32.4,0.00,WSW,248,0.0,0.0,91,0.02,,,0.19,WUHU216HW,2013-01-18 00:19:00,
2013-01-17 19:24:00,34.8,32.4,0.00,WSW,248,0.0,0.0,91,0.02,,,0.19,WUHU216HW,2013-01-18 00:24:00,
2013-01-17 19:29:00,34.8,32.4,0.00,WSW,248,0.0,0.0,91,0.02,,,0.19,WUHU216HW,2013-01-18 00:29:00,
2013-01-17 19:34:00,34.8,32.4,0.00,WSW,248,0.0,0.0,91,0.02,,,0.19,WUHU216HW,2013-01-18 00:34:00,
2013-01-17 19:39:00,34.8,32.4,0.00,WNW,293,0.0,0.0,91,0.02,,,0.19,WUHU216HW,2013-01-18 00:39:00,
2013-01-17 19:44:00,35.2,32.8,0.00,West,270,0.0,0.0,91,0.02,,,0.19,WUHU216HW,2013-01-18 00:44:00,
2013-01-17 19:49:00,35.2,32.8,0.00,SE,135,0.0,0.8,91,0.02,,,0.19,WUHU216HW,2013-01-18 00:49:00,
2013-01-17 19:54:00,35.2,32.8,0.00,West,270,0.0,0.8,91,0.02,,,0.21,WUHU216HW,2013-01-18 00:54:00,
2013-01-17 19:59:00,35.4,32.9,0.00,WSW,248,0.0,0.0,91,0.02,,,0.21,WUHU216HW,2013-01-18 00:59:00,
2013-01-17 20:04:00,35.4,32.9,0.00,SSE,158,0.0,2.9,92,0.02,,,0.21,WUHU216HW,2013-01-18 01:04:00,
2013-01-17 20:09:00,35.4,32.9,0.00,SSE,158,3.5,3.5,91,0.02,,,0.21,WUHU216HW,2013-01-18 01:09:00,
2013-01-17 20:14:00,35.2,32.8,0.00,SE,135,0.0,3.5,91,0.02,,,0.21,WUHU216HW,2013-01-18 01:14:00,
2013-01-17 20:19:00,35.2,32.8,0.00,SSE,158,0.0,2.9,91,0.02,,,0.21,WUHU216HW,2013-01-18 01:19:00,
2013-01-17 20:24:00,34.8,32.4,0.00,ESE,113,0.0,8.2,91,0.02,,,0.21,WUHU216HW,2013-01-18 01:24:00,
2013-01-17 20:29:00,34.8,32.4,0.00,SSE,158,0.0,8.2,91,0.02,,,0.21,WUHU216HW,2013-01-18 01:29:00,
2013-01-17 20:34:00,34.7,32.2,0.00,South,180,6.2,6.2,91,0.02,,,0.21,WUHU216HW,2013-01-18 01:34:00,
2013-01-17 20:39:00,34.5,32.0,0.00,NNW,338,0.0,6.2,91,0.02,,,0.21,WUHU216HW,2013-01-18 01:39:00,
2013-01-17 20:44:00,34.5,32.0,0.00,NNW,338,0.0,0.0,91,0.02,,,0.21,WUHU216HW,2013-01-18 01:44:00,
2013-01-17 20:49:00,34.3,31.9,0.00,WNW,293,3.5,3.5,91,0.00,,,0.21,WUHU216HW,2013-01-18 01:49:00,
2013-01-17 20:54:00,34.3,31.9,0.00,North,0,0.0,3.5,91,0.02,,,0.23,WUHU216HW,2013-01-18 01:54:00,
2013-01-17 20:59:00,34.3,31.9,0.00,SSE,158,0.0,4.9,91,0.02,,,0.23,WUHU216HW,2013-01-18 01:59:00,
2013-01-17 21:04:00,34.3,31.9,0.00,SSW,203,0.0,4.9,91,0.02,,,0.23,WUHU216HW,2013-01-18 02:04:00,
2013-01-17 21:09:00,34.3,31.9,0.00,WNW,293,0.0,4.2,91,0.02,,,0.23,WUHU216HW,2013-01-18 02:09:00,
2013-01-17 21:14:00,34.3,31.9,0.00,SSE,158,0.0,5.8,91,0.02,,,0.23,WUHU216HW,2013-01-18 02:14:00,
2013-01-17 21:19:00,34.3,31.9,0.00,WNW,293,0.0,5.8,91,0.02,,,0.23,WUHU216HW,2013-01-18 02:19:00,
2013-01-17 21:24:00,34.3,31.9,0.00,South,180,0.0,2.0,91,0.02,,,0.23,WUHU216HW,2013-01-18 02:24:00,
2013-01-17 21:29:00,34.3,31.9,0.00,WNW,293,0.0,2.0,91,0.02,,,0.23,WUHU216HW,2013-01-18 02:29:00,
2013-01-17 21:34:00,34.3,31.9,0.00,NW,315,0.0,6.0,91,0.02,,,0.23,WUHU216HW,2013-01-18 02:34:00,
2013-01-17 21:39:00,34.3,31.9,0.00,WNW,293,0.0,6.0,91,0.02,,,0.23,WUHU216HW,2013-01-18 02:39:00,
2013-01-17 21:44:00,34.3,31.9,0.00,NW,315,0.0,3.1,91,0.02,,,0.23,WUHU216HW,2013-01-18 02:44:00,
2013-01-17 21:49:00,34.1,31.9,0.00,SW,225,0.0,3.1,91,0.00,,,0.23,WUHU216HW,2013-01-18 02:49:00,
2013-01-17 21:54:00,34.3,31.9,0.00,WSW,248,0.0,3.1,91,0.00,,,0.23,WUHU216HW,2013-01-18 02:54:00,
2013-01-17 21:59:00,34.3,31.9,0.00,WNW,293,2.2,4.9,91,0.00,,,0.23,WUHU216HW,2013-01-18 02:59:00,
2013-01-17 22:04:00,34.3,31.9,0.00,NE,45,0.0,4.9,91,0.00,,,0.23,WUHU216HW,2013-01-18 03:04:00,
2013-01-17 22:09:00,34.3,31.9,0.00,WSW,248,0.0,0.0,91,0.00,,,0.23,WUHU216HW,2013-01-18 03:09:00,
2013-01-17 22:14:00,34.3,31.9,0.00,West,270,0.0,2.4,91,0.00,,,0.23,WUHU216HW,2013-01-18 03:14:00,
2013-01-17 22:19:00,34.1,31.7,0.00,WNW,293,0.0,3.3,91,0.00,,,0.23,WUHU216HW,2013-01-18 03:19:00,
2013-01-17 22:24:00,34.1,31.7,0.00,SE,135,0.0,3.3,91,0.00,,,0.23,WUHU216HW,2013-01-18 03:24:00,
2013-01-17 22:29:00,33.9,31.5,0.00,NW,315,6.0,6.0,91,0.00,,,0.23,WUHU216HW,2013-01-18 03:29:00,
2013-01-17 22:34:00,33.9,31.5,0.00,WNW,293,6.2,6.2,91,0.00,,,0.23,WUHU216HW,2013-01-18 03:34:00,
2013-01-17 22:39:00,33.9,31.5,0.00,WNW,293,0.0,6.2,91,0.00,,,0.23,WUHU216HW,2013-01-18 03:39:00,
2013-01-17 22:44:00,33.8,31.3,0.00,South,180,0.0,4.9,91,0.00,,,0.23,WUHU216HW,2013-01-18 03:44:00,
2013-01-17 22:49:00,33.8,31.1,0.00,SSW,203,0.0,4.9,91,0.00,,,0.23,WUHU216HW,2013-01-18 03:49:00,
2013-01-17 22:54:00,33.6,31.1,0.00,West,270,0.0,0.0,91,0.00,,,0.23,WUHU216HW,2013-01-18 03:54:00,
2013-01-17 22:59:00,33.6,31.1,0.00,South,180,0.0,5.1,91,0.00,,,0.23,WUHU216HW,2013-01-18 03:59:00,
2013-01-17 23:04:00,33.6,31.1,0.00,SSE,158,5.5,5.5,91,0.00,,,0.23,WUHU216HW,2013-01-18 04:04:00,
2013-01-17 23:09:00,33.6,31.1,0.00,West,270,0.0,5.5,91,0.00,,,0.23,WUHU216HW,2013-01-18 04:09:00,
2013-01-17 23:14:00,33.4,31.0,0.00,SSE,158,0.0,2.6,91,0.00,,,0.23,WUHU216HW,2013-01-18 04:14:00,
2013-01-17 23:19:00,33.4,31.0,0.00,SW,225,0.0,0.0,91,0.00,,,0.23,WUHU216HW,2013-01-18 04:19:00,
2013-01-17 23:24:00,33.4,31.0,0.00,WNW,293,0.0,3.3,91,0.00,,,0.23,WUHU216HW,2013-01-18 04:24:00,
2013-01-17 23:29:00,33.2,30.8,0.00,NNE,23,0.0,3.3,91,0.00,,,0.23,WUHU216HW,2013-01-18 04:29:00,
2013-01-17 23:34:00,33.0,30.7,0.00,SSW,203,1.5,1.7,91,0.00,,,0.23,WUHU216HW,2013-01-18 04:34:00,
2013-01-17 23:39:00,33.0,30.7,0.00,NW,315,0.0,1.7,91,0.00,,,0.23,WUHU216HW,2013-01-18 04:39:00,
2013-01-17 23:44:00,33.0,30.7,0.00,WSW,248,0.0,3.8,91,0.00,,,0.23,WUHU216HW,2013-01-18 04:44:00,
2013-01-17 23:49:00,32.9,30.5,0.00,SSE,158,0.0,3.8,91,0.00,,,0.23,WUHU216HW,2013-01-18 04:49:00,
2013-01-17 23:54:00,32.7,30.3,0.00,North,0,2.4,3.1,91,0.00,,,0.23,WUHU216HW,2013-01-18 04:54:00,
2013-01-17 23:59:00,32.7,30.3,0.00,WSW,248,0.0,3.1,91,0.00,,,0.23,WUHU216HW,2013-01-18 04:59:00,